Погода в Введенье

Россия / Ивановская область     56°58′04″N   41°20′07″E
темп.,
°C
ветер,
м/с
пор.,
м/с
влажн.,
%
обл.,
%
осадки,
мм/ч
давл.,
гПа
погр.,
м
12 мая, ср
ср1200:00+11в34895 0.0 102852
03:00+11всв22945 0.0 102832
06:00+12св259253 0.0 1028123
09:00+18всв477358 0.0 1027502
12:00+22в68606 0.0 10261039
15:00+23в611549 0.0 10242629
18:00+17ююв4107697 0.3 1023241
21:00+14вюв388887 1.0 1024157
13 мая, чт
чт1300:00+13юв3109489 0.0 1024339
03:00+12вюв37975 0.0 1024173
06:00+13вюв379410 0.0 1024245
09:00+18вюв577649 0.0 1023724
12:00+20вюв686538 0.2 10211183
15:00+22вюв7126097 0.4 10181898
18:00+15юв61486100 0.4 1017768
21:00+14юв6129588 3.9 1017606
14 мая, пт
пт1400:00+14ю369843 0.1 1018235
03:00+11ю2498100 0.1 101875
06:00+13ю36958 0.0 1019191
09:00+17ю4678100 0.0 1019694
12:00+21ю4664100 0.1 10191235
15:00+21ю46605 0.6 10181279
18:00+20юв367299 0.6 1017174
21:00+16юв3888100 1.4 1016136
15 мая, сб
сб1500:00+15юв2796100 5.1 1016205
03:00+15вюв3896100 6.1 1014162
06:00+16юв4992100 1.2 1014218
09:00+20ю51084100 1.2 1013471
12:00+23ююв5869100 0.0 1012806
15:00+25ю576197 2.0 10101441
18:00+14з51189100 5.8 1010237
21:00+13ю311940 5.8 1011255
16 мая, вс
вс1600:00+12ююв310975 0.0 1011214
03:00+12ю39979 0.0 1011189
06:00+14ююз410930 0.0 1011345
09:00+18юз58764 0.0 1012718
12:00+21юз57590 0.0 10121559
15:00+22юз68567 0.0 10122041
18:00+19зюз59682 0.4 1013555
21:00+13юз37911 0.9 1014128